TimeEST,TemperatureF,Dew PointF,Humidity,Sea Level PressureIn,VisibilityMPH,Wind Direction,Wind SpeedMPH,Gust SpeedMPH,PrecipitationIn,Events,Conditions,WindDirDegrees,DateUTC
12:54 AM,39.9,28.0,63,30.07,10.0,NW,6.9,-,N/A,,Clear,310,2012-11-05 05:54:00
1:54 AM,39.0,28.0,65,30.07,10.0,NNW,6.9,-,N/A,,Clear,340,2012-11-05 06:54:00
2:54 AM,35.1,28.0,76,30.08,10.0,Calm,Calm,-,N/A,,Clear,0,2012-11-05 07:54:00
3:54 AM,35.1,28.0,76,30.08,10.0,Calm,Calm,-,N/A,,Clear,0,2012-11-05 08:54:00
4:54 AM,33.1,27.0,78,30.10,10.0,Calm,Calm,-,N/A,,Clear,0,2012-11-05 09:54:00
5:54 AM,30.9,26.1,82,30.10,10.0,Calm,Calm,-,N/A,,Clear,0,2012-11-05 10:54:00
6:54 AM,32.0,25.0,75,30.11,10.0,NW,6.9,-,N/A,,Clear,310,2012-11-05 11:54:00
7:54 AM,36.0,28.0,73,30.12,10.0,WNW,4.6,-,N/A,,Clear,300,2012-11-05 12:54:00
8:54 AM,43.0,26.1,51,30.12,10.0,Calm,Calm,-,N/A,,Clear,0,2012-11-05 13:54:00
9:54 AM,45.0,26.1,48,30.11,10.0,North,4.6,-,N/A,,Clear,360,2012-11-05 14:54:00
10:54 AM,48.0,26.1,42,30.12,10.0,Variable,4.6,-,N/A,,Clear,0,2012-11-05 15:54:00
11:54 AM,50.0,26.1,39,30.11,10.0,North,8.1,-,N/A,,Clear,360,2012-11-05 16:54:00
12:54 PM,52.0,25.0,35,30.07,10.0,Calm,Calm,-,N/A,,Clear,0,2012-11-05 17:54:00
1:54 PM,53.1,25.0,34,30.05,10.0,Calm,Calm,-,N/A,,Clear,0,2012-11-05 18:54:00
2:54 PM,55.0,26.1,33,30.05,10.0,East,5.8,-,N/A,,Clear,80,2012-11-05 19:54:00
3:54 PM,53.1,26.1,35,30.05,10.0,East,3.5,-,N/A,,Clear,80,2012-11-05 20:54:00
4:54 PM,50.0,26.1,39,30.06,10.0,East,5.8,-,N/A,,Clear,90,2012-11-05 21:54:00
5:54 PM,50.0,25.0,38,30.07,10.0,ENE,3.5,-,N/A,,Clear,70,2012-11-05 22:54:00
6:54 PM,46.0,27.0,47,30.10,10.0,Calm,Calm,-,N/A,,Clear,0,2012-11-05 23:54:00
7:54 PM,44.1,27.0,51,30.11,10.0,Calm,Calm,-,N/A,,Clear,0,2012-11-06 00:54:00
8:54 PM,42.1,28.0,58,30.14,10.0,Calm,Calm,-,N/A,,Clear,0,2012-11-06 01:54:00
9:54 PM,36.0,28.9,76,30.15,10.0,Calm,Calm,-,N/A,,Clear,0,2012-11-06 02:54:00
10:54 PM,35.1,28.0,76,30.15,10.0,Calm,Calm,-,N/A,,Clear,0,2012-11-06 03:54:00
11:54 PM,34.0,26.1,73,30.15,10.0,West,3.5,-,N/A,,Clear,280,2012-11-06 04:54:00